Station Historical Data
Daily Summary for September 1, 2017 Units:  English    Metric   Both
Next Day »
Daily Weekly Monthly Yearly Custom
  High: Low: Average:
Temperature: 99.4 °F 76.6 °F 85.8 °F
Dew Point: 49.5 °F 37.7 °F 44.1 °F
Humidity: 31% 13% 24%
Wind Speed: 13.0mph 0.0mph 2.6mph
Wind Gust: 21.0mph - -
Wind- - SSE
Pressure: 29.87 in 29.78 in -
Precipitation: 0.00 in    
Historical Graphs
 
 
Tabular Data for September 1, 2017
Time Temperature Dew Point Pressure Wind Wind Speed Wind Gust Humidity Rainfall Rate (Hourly) solar Conditions
00:00 78.8 °F 43.9 °F 29.84 in Calm   7.0 mph 29% 0.00 in 0.00 W/m2
00:01 78.8 °F 43.9 °F 29.84 in East 5.0 mph 5.0 mph 29% 0.00 in 0.00 W/m2
00:11 78.7 °F 43.8 °F 29.84 in ESE 1.0 mph 5.0 mph 29% 0.00 in 0.00 W/m2
00:12 78.7 °F 43.8 °F 29.84 in ESE 4.0 mph 6.0 mph 29% 0.00 in 0.00 W/m2
00:17 78.7 °F 43.8 °F 29.85 in East 5.0 mph 7.0 mph 29% 0.00 in 0.00 W/m2
00:22 78.6 °F 43.7 °F 29.85 in ESE 4.0 mph 8.0 mph 29% 0.00 in 0.00 W/m2
00:27 78.5 °F 43.6 °F 29.85 in Calm   6.0 mph 29% 0.00 in 0.00 W/m2
00:32 78.5 °F 43.6 °F 29.85 in ESE 2.0 mph 7.0 mph 29% 0.00 in 0.00 W/m2
00:37 78.4 °F 43.5 °F 29.85 in Calm   5.0 mph 29% 0.00 in 0.00 W/m2
00:42 78.3 °F 43.5 °F 29.85 in East 5.0 mph 7.0 mph 29% 0.00 in 0.00 W/m2
00:47 78.2 °F 43.4 °F 29.85 in East 6.0 mph 7.0 mph 29% 0.00 in 0.00 W/m2
00:52 78.1 °F 43.3 °F 29.85 in East 4.0 mph 6.0 mph 29% 0.00 in 0.00 W/m2
00:57 78.0 °F 43.2 °F 29.85 in East 2.0 mph 7.0 mph 29% 0.00 in 0.00 W/m2
01:02 77.9 °F 43.1 °F 29.85 in East 4.0 mph 7.0 mph 29% 0.00 in 0.00 W/m2
01:07 77.9 °F 43.1 °F 29.85 in ESE 2.0 mph 7.0 mph 29% 0.00 in 0.00 W/m2
01:12 77.8 °F 42.1 °F 29.85 in ESE 2.0 mph 8.0 mph 28% 0.00 in 0.00 W/m2
01:18 77.8 °F 43.0 °F 29.85 in ESE 6.0 mph 6.0 mph 29% 0.00 in 0.00 W/m2
01:23 77.7 °F 42.9 °F 29.85 in ESE 4.0 mph 6.0 mph 29% 0.00 in 0.00 W/m2
01:26 77.7 °F 42.9 °F 29.85 in ESE 1.0 mph 6.0 mph 29% 0.00 in 0.00 W/m2
01:31 77.5 °F 42.8 °F 29.85 in East 1.0 mph 8.0 mph 29% 0.00 in 0.00 W/m2
01:36 77.5 °F 41.9 °F 29.85 in Calm   11.0 mph 28% 0.00 in 0.00 W/m2
01:41 77.4 °F 42.7 °F 29.85 in East 4.0 mph 11.0 mph 29% 0.00 in 0.00 W/m2
01:46 77.3 °F 41.7 °F 29.85 in Calm   11.0 mph 28% 0.00 in 0.00 W/m2
01:51 77.3 °F 42.6 °F 29.85 in East 6.0 mph 12.0 mph 29% 0.00 in 0.00 W/m2
01:56 77.2 °F 42.5 °F 29.85 in ESE 4.0 mph 6.0 mph 29% 0.00 in 0.00 W/m2
02:01 77.2 °F 41.6 °F 29.85 in ESE 1.0 mph 1.0 mph 28% 0.00 in 0.00 W/m2
02:06 77.1 °F 41.5 °F 29.85 in ESE 6.0 mph 7.0 mph 28% 0.00 in 0.00 W/m2
02:11 77.0 °F 41.4 °F 29.85 in ESE 2.0 mph 5.0 mph 28% 0.00 in 0.00 W/m2
02:16 76.9 °F 41.3 °F 29.85 in ESE 4.0 mph 4.0 mph 28% 0.00 in 0.00 W/m2
02:21 76.8 °F 41.3 °F 29.85 in East 4.0 mph 5.0 mph 28% 0.00 in 0.00 W/m2
02:26 76.8 °F 41.3 °F 29.85 in ESE 4.0 mph 9.0 mph 28% 0.00 in 0.00 W/m2
02:31 76.7 °F 41.2 °F 29.85 in East 6.0 mph 12.0 mph 28% 0.00 in 0.00 W/m2
02:36 76.6 °F 41.1 °F 29.84 in East 6.0 mph 12.0 mph 28% 0.00 in 0.00 W/m2
02:41 76.6 °F 40.2 °F 29.84 in East 5.0 mph 10.0 mph 27% 0.00 in 0.00 W/m2
02:46 76.6 °F 41.1 °F 29.84 in Calm   7.0 mph 28% 0.00 in 0.00 W/m2
02:51 76.6 °F 40.2 °F 29.85 in East 5.0 mph 12.0 mph 27% 0.00 in 0.00 W/m2
02:56 76.7 °F 39.3 °F 29.84 in Calm   5.0 mph 26% 0.00 in 0.00 W/m2
03:01 76.8 °F 39.3 °F 29.84 in East 6.0 mph 7.0 mph 26% 0.00 in 0.00 W/m2
03:06 76.8 °F 39.3 °F 29.84 in East 5.0 mph 7.0 mph 26% 0.00 in 0.00 W/m2
03:11 76.9 °F 39.4 °F 29.85 in Calm   13.0 mph 26% 0.00 in 0.00 W/m2
03:16 77.1 °F 38.6 °F 29.85 in East 4.0 mph 5.0 mph 25% 0.00 in 0.00 W/m2
03:21 77.1 °F 39.6 °F 29.85 in Calm   14.0 mph 26% 0.00 in 0.00 W/m2
03:26 77.2 °F 38.7 °F 29.85 in Calm   5.0 mph 25% 0.00 in 0.00 W/m2
03:31 77.3 °F 38.8 °F 29.85 in ESE 9.0 mph 12.0 mph 25% 0.00 in 0.00 W/m2
03:36 77.4 °F 38.9 °F 29.85 in East 10.0 mph 11.0 mph 25% 0.00 in 0.00 W/m2
03:41 77.4 °F 38.9 °F 29.85 in ESE 1.0 mph 8.0 mph 25% 0.00 in 0.00 W/m2
03:47 77.5 °F 37.9 °F 29.85 in ESE 1.0 mph 18.0 mph 24% 0.00 in 0.00 W/m2
03:52 77.5 °F 38.9 °F 29.85 in Calm   7.0 mph 25% 0.00 in 0.00 W/m2
03:57 77.5 °F 37.9 °F 29.85 in Calm   8.0 mph 24% 0.00 in 0.00 W/m2
04:02 77.5 °F 37.9 °F 29.85 in Calm   9.0 mph 24% 0.00 in 0.00 W/m2
04:07 77.5 °F 37.9 °F 29.85 in ESE 8.0 mph 9.0 mph 24% 0.00 in 0.00 W/m2
04:12 77.5 °F 38.9 °F 29.85 in ENE 7.0 mph 14.0 mph 25% 0.00 in 0.00 W/m2
04:17 77.6 °F 38.0 °F 29.85 in East 7.0 mph 9.0 mph 24% 0.00 in 0.00 W/m2
04:22 77.6 °F 38.0 °F 29.85 in ESE 7.0 mph 12.0 mph 24% 0.00 in 0.00 W/m2
04:27 77.6 °F 38.0 °F 29.85 in East 7.0 mph 12.0 mph 24% 0.00 in 0.00 W/m2
04:32 77.6 °F 38.0 °F 29.85 in Calm   11.0 mph 24% 0.00 in 0.00 W/m2
04:37 77.6 °F 38.0 °F 29.85 in East 11.0 mph 11.0 mph 24% 0.00 in 0.00 W/m2
04:42 77.6 °F 38.0 °F 29.85 in ESE 9.0 mph 15.0 mph 24% 0.00 in 0.00 W/m2
04:47 77.6 °F 38.0 °F 29.85 in East 3.0 mph 13.0 mph 24% 0.00 in 0.00 W/m2
04:52 77.6 °F 38.0 °F 29.85 in East 1.0 mph 13.0 mph 24% 0.00 in 0.00 W/m2
04:57 77.6 °F 38.0 °F 29.84 in East 4.0 mph 12.0 mph 24% 0.00 in 0.00 W/m2
05:02 77.6 °F 38.0 °F 29.84 in East 6.0 mph 11.0 mph 24% 0.00 in 0.00 W/m2
05:07 77.6 °F 39.0 °F 29.84 in ESE 4.0 mph 10.0 mph 25% 0.00 in 0.00 W/m2
05:12 77.6 °F 38.0 °F 29.84 in East 2.0 mph 16.0 mph 24% 0.00 in 0.00 W/m2
05:17 77.6 °F 38.0 °F 29.84 in Calm   12.0 mph 24% 0.00 in 0.00 W/m2
05:22 77.8 °F 38.2 °F 29.84 in East 10.0 mph 10.0 mph 24% 0.00 in 0.00 W/m2
05:23 77.8 °F 38.2 °F 29.84 in East 1.0 mph 11.0 mph 24% 0.00 in 0.00 W/m2
05:28 78.1 °F 38.4 °F 29.84 in East 4.0 mph 8.0 mph 24% 0.00 in 0.00 W/m2
05:33 78.3 °F 38.6 °F 29.84 in East 6.0 mph 12.0 mph 24% 0.00 in 0.00 W/m2
05:38 78.4 °F 38.7 °F 29.84 in ENE 2.0 mph 12.0 mph 24% 0.00 in 0.00 W/m2
05:43 78.5 °F 38.7 °F 29.85 in Calm   8.0 mph 24% 0.00 in 0.00 W/m2
05:48 78.6 °F 38.8 °F 29.85 in ENE 5.0 mph 11.0 mph 24% 0.00 in 0.00 W/m2
05:53 78.6 °F 38.8 °F 29.85 in Calm   15.0 mph 24% 0.00 in 0.00 W/m2
05:58 78.7 °F 38.9 °F 29.85 in ESE 8.0 mph 15.0 mph 24% 0.00 in 0.00 W/m2
06:03 78.7 °F 38.9 °F 29.85 in East 1.0 mph 15.0 mph 24% 0.00 in 0.00 W/m2
06:08 78.7 °F 38.9 °F 29.85 in East 10.0 mph 13.0 mph 24% 0.00 in 0.00 W/m2
06:14 78.7 °F 38.9 °F 29.85 in East 10.0 mph 13.0 mph 24% 0.00 in 0.00 W/m2
06:19 78.7 °F 37.8 °F 29.85 in ESE 4.0 mph 11.0 mph 23% 0.00 in 0.00 W/m2
06:24 78.7 °F 38.9 °F 29.85 in ESE 4.0 mph 11.0 mph 24% 0.00 in 0.00 W/m2
06:29 78.6 °F 37.7 °F 29.86 in ESE 1.0 mph 9.0 mph 23% 0.00 in 0.00 W/m2
06:34 78.6 °F 37.7 °F 29.86 in ESE 2.0 mph 13.0 mph 23% 0.00 in 5.00 W/m2
06:39 78.5 °F 38.7 °F 29.86 in ESE 6.0 mph 9.0 mph 24% 0.00 in 9.00 W/m2
06:44 78.5 °F 38.7 °F 29.86 in Calm   15.0 mph 24% 0.00 in 12.00 W/m2
06:49 78.4 °F 38.7 °F 29.86 in East 2.0 mph 14.0 mph 24% 0.00 in 18.00 W/m2
06:54 78.3 °F 38.6 °F 29.86 in ESE 9.0 mph 15.0 mph 24% 0.00 in 21.00 W/m2
06:59 78.1 °F 38.4 °F 29.86 in ESE 4.0 mph 15.0 mph 24% 0.00 in 28.00 W/m2
07:04 78.0 °F 38.3 °F 29.86 in East 7.0 mph 18.0 mph 24% 0.00 in 33.00 W/m2
07:09 77.9 °F 39.3 °F 29.86 in East 6.0 mph 14.0 mph 25% 0.00 in 44.00 W/m2
07:14 77.8 °F 39.2 °F 29.86 in ESE 1.0 mph 14.0 mph 25% 0.00 in 53.00 W/m2
07:19 77.8 °F 39.2 °F 29.86 in East 10.0 mph 13.0 mph 25% 0.00 in 63.00 W/m2
07:24 77.8 °F 39.2 °F 29.86 in ESE 1.0 mph 11.0 mph 25% 0.00 in 72.00 W/m2
07:29 77.8 °F 40.2 °F 29.86 in ESE 6.0 mph 14.0 mph 26% 0.00 in 84.00 W/m2
07:34 77.8 °F 40.2 °F 29.86 in SE 12.0 mph 16.0 mph 26% 0.00 in 100.00 W/m2
07:39 78.0 °F 40.4 °F 29.87 in ESE 1.0 mph 16.0 mph 26% 0.00 in 116.00 W/m2
07:44 78.0 °F 40.4 °F 29.87 in ESE 11.0 mph 12.0 mph 26% 0.00 in 128.00 W/m2
07:49 78.2 °F 41.5 °F 29.87 in ENE 3.0 mph 18.0 mph 27% 0.00 in 141.00 W/m2
07:54 78.3 °F 41.6 °F 29.87 in ESE 13.0 mph 16.0 mph 27% 0.00 in 163.00 W/m2
07:59 78.4 °F 41.7 °F 29.87 in ESE 9.0 mph 16.0 mph 27% 0.00 in 178.00 W/m2
08:04 78.5 °F 41.8 °F 29.87 in ESE 12.0 mph 16.0 mph 27% 0.00 in 190.00 W/m2
08:09 78.7 °F 41.9 °F 29.87 in East 1.0 mph 14.0 mph 27% 0.00 in 220.00 W/m2
08:14 78.9 °F 42.1 °F 29.87 in ESE 9.0 mph 15.0 mph 27% 0.00 in 229.00 W/m2
08:19 79.0 °F 42.2 °F 29.87 in East 2.0 mph 19.0 mph 27% 0.00 in 246.00 W/m2
08:24 79.2 °F 42.4 °F 29.87 in SE 1.0 mph 12.0 mph 27% 0.00 in 262.00 W/m2
08:29 79.3 °F 42.5 °F 29.87 in East 8.0 mph 16.0 mph 27% 0.00 in 283.00 W/m2
08:34 79.4 °F 42.5 °F 29.87 in East 4.0 mph 18.0 mph 27% 0.00 in 297.00 W/m2
08:39 79.6 °F 42.7 °F 29.87 in SE 1.0 mph 14.0 mph 27% 0.00 in 309.00 W/m2
08:44 79.8 °F 42.9 °F 29.87 in East 2.0 mph 18.0 mph 27% 0.00 in 329.00 W/m2
08:49 80.0 °F 44.0 °F 29.87 in Calm   16.0 mph 28% 0.00 in 350.00 W/m2
08:54 80.2 °F 44.2 °F 29.87 in East 4.0 mph 15.0 mph 28% 0.00 in 366.00 W/m2
08:59 80.4 °F 44.3 °F 29.87 in ESE 13.0 mph 13.0 mph 28% 0.00 in 374.00 W/m2
09:04 80.6 °F 44.5 °F 29.87 in East 1.0 mph 15.0 mph 28% 0.00 in 396.00 W/m2
09:10 80.8 °F 44.7 °F 29.87 in East 1.0 mph 14.0 mph 28% 0.00 in 408.00 W/m2
09:14 81.1 °F 44.9 °F 29.87 in ENE 7.0 mph 14.0 mph 28% 0.00 in 424.00 W/m2
09:20 81.4 °F 45.2 °F 29.87 in ESE 8.0 mph 12.0 mph 28% 0.00 in 441.00 W/m2
09:25 81.8 °F 45.5 °F 29.87 in ESE 8.0 mph 21.0 mph 28% 0.00 in 452.00 W/m2
09:30 82.1 °F 44.8 °F 29.87 in ESE 2.0 mph 15.0 mph 27% 0.00 in 461.00 W/m2
09:35 82.5 °F 44.2 °F 29.87 in SE 7.0 mph 21.0 mph 26% 0.00 in 483.00 W/m2
09:40 83.0 °F 45.6 °F 29.87 in East 2.0 mph 12.0 mph 27% 0.00 in 499.00 W/m2
09:45 83.5 °F 45.0 °F 29.87 in ESE 1.0 mph 13.0 mph 26% 0.00 in 520.00 W/m2
09:50 84.0 °F 45.5 °F 29.87 in ESE 4.0 mph 10.0 mph 26% 0.00 in 538.00 W/m2
09:55 84.5 °F 44.9 °F 29.87 in Calm   11.0 mph 25% 0.00 in 545.00 W/m2
10:00 85.2 °F 44.4 °F 29.87 in ESE 4.0 mph 15.0 mph 24% 0.00 in 561.00 W/m2
10:05 85.6 °F 45.8 °F 29.87 in East 6.0 mph 13.0 mph 25% 0.00 in 573.00 W/m2
10:10 86.1 °F 46.2 °F 29.87 in ESE 9.0 mph 13.0 mph 25% 0.00 in 578.00 W/m2
10:15 86.6 °F 46.6 °F 29.87 in Calm   12.0 mph 25% 0.00 in 591.00 W/m2
10:20 87.1 °F 46.0 °F 29.87 in SE 1.0 mph 10.0 mph 24% 0.00 in 606.00 W/m2
10:25 87.7 °F 46.5 °F 29.87 in East 6.0 mph 12.0 mph 24% 0.00 in 617.00 W/m2
10:30 88.1 °F 45.7 °F 29.87 in East 5.0 mph 12.0 mph 23% 0.00 in 629.00 W/m2
10:35 88.5 °F 46.0 °F 29.87 in Calm   9.0 mph 23% 0.00 in 638.00 W/m2
10:40 88.9 °F 46.3 °F 29.87 in ESE 11.0 mph 11.0 mph 23% 0.00 in 647.00 W/m2
10:45 89.2 °F 45.4 °F 29.87 in ESE 7.0 mph 15.0 mph 22% 0.00 in 664.00 W/m2
10:50 89.6 °F 45.8 °F 29.87 in Calm   8.0 mph 22% 0.00 in 675.00 W/m2
10:55 90.1 °F 46.2 °F 29.87 in ESE 1.0 mph 9.0 mph 22% 0.00 in 687.00 W/m2
11:00 90.6 °F 45.4 °F 29.87 in Calm   11.0 mph 21% 0.00 in 701.00 W/m2
11:05 91.0 °F 46.9 °F 29.87 in Calm   11.0 mph 22% 0.00 in 708.00 W/m2
11:10 91.6 °F 44.9 °F 29.87 in ESE 4.0 mph 5.0 mph 20% 0.00 in 724.00 W/m2
11:15 92.2 °F 46.7 °F 29.86 in Calm   7.0 mph 21% 0.00 in 731.00 W/m2
11:20 92.7 °F 45.8 °F 29.86 in Calm   9.0 mph 20% 0.00 in 740.00 W/m2
11:25 93.0 °F 46.0 °F 29.86 in Calm   7.0 mph 20% 0.00 in 740.00 W/m2
11:30 93.3 °F 44.9 °F 29.86 in East 4.0 mph 7.0 mph 19% 0.00 in 752.00 W/m2
11:35 93.6 °F 43.8 °F 29.86 in ESE 2.0 mph 9.0 mph 18% 0.00 in 759.00 W/m2
11:41 94.0 °F 44.1 °F 29.86 in SE 2.0 mph 9.0 mph 18% 0.00 in 763.00 W/m2
11:46 94.5 °F 48.6 °F 29.85 in Calm     21% 0.00 in 775.00 W/m2
11:51 94.8 °F 44.7 °F 29.85 in Calm     18% 0.00 in 780.00 W/m2
11:56 95.1 °F 45.0 °F 29.85 in Calm     18% 0.00 in 786.00 W/m2
12:01 95.5 °F 40.5 °F 29.85 in Calm     15% 0.00 in 796.00 W/m2
12:06 95.9 °F 42.5 °F 29.85 in ESE 4.0 mph 4.0 mph 16% 0.00 in 803.00 W/m2
12:11 96.3 °F 42.9 °F 29.85 in Calm     16% 0.00 in 810.00 W/m2
12:16 96.7 °F 44.8 °F 29.85 in Calm     17% 0.00 in 816.00 W/m2
12:21 97.0 °F 43.4 °F 29.85 in Calm     16% 0.00 in 814.00 W/m2
12:26 97.3 °F 43.7 °F 29.85 in ESE 1.0 mph 1.0 mph 16% 0.00 in 816.00 W/m2
12:31 97.5 °F 43.8 °F 29.84 in Calm   1.0 mph 16% 0.00 in 817.00 W/m2
12:36 97.7 °F 44.0 °F 29.84 in Calm   5.0 mph 16% 0.00 in 814.00 W/m2
12:42 98.0 °F 44.2 °F 29.84 in Calm   1.0 mph 16% 0.00 in 816.00 W/m2
12:47 98.4 °F 42.8 °F 29.84 in Calm   1.0 mph 15% 0.00 in 821.00 W/m2
12:52 98.8 °F 44.8 °F 29.84 in Calm   1.0 mph 16% 0.00 in 819.00 W/m2
12:57 99.1 °F 43.4 °F 29.84 in Calm     15% 0.00 in 817.00 W/m2
13:02 99.3 °F 39.8 °F 29.83 in NNW 1.0 mph 4.0 mph 13% 0.00 in 821.00 W/m2
13:07 99.1 °F 41.6 °F 29.83 in Calm   2.0 mph 14% 0.00 in 823.00 W/m2
13:12 99.4 °F 39.9 °F 29.83 in Calm     13% 0.00 in 816.00 W/m2
13:17 99.3 °F 41.8 °F 29.83 in Calm   1.0 mph 14% 0.00 in 819.00 W/m2
13:22 99.1 °F 41.6 °F 29.83 in Calm   2.0 mph 14% 0.00 in 812.00 W/m2
13:27 99.0 °F 41.5 °F 29.82 in Calm   1.0 mph 14% 0.00 in 812.00 W/m2
13:32 99.2 °F 45.2 °F 29.82 in Calm   5.0 mph 16% 0.00 in 807.00 W/m2
13:37 99.3 °F 45.2 °F 29.82 in Calm   5.0 mph 16% 0.00 in 805.00 W/m2
13:42 99.4 °F 45.3 °F 29.82 in Calm   8.0 mph 16% 0.00 in 800.00 W/m2
13:47 99.3 °F 45.2 °F 29.82 in Calm   5.0 mph 16% 0.00 in 796.00 W/m2
13:52 99.2 °F 45.2 °F 29.82 in Calm   5.0 mph 16% 0.00 in 789.00 W/m2
13:57 99.1 °F 45.1 °F 29.82 in Calm   1.0 mph 16% 0.00 in 791.00 W/m2
14:02 99.1 °F 45.1 °F 29.82 in NNW 4.0 mph 5.0 mph 16% 0.00 in 779.00 W/m2
14:07 99.1 °F 45.1 °F 29.81 in Calm     16% 0.00 in 777.00 W/m2
14:12 98.8 °F 44.8 °F 29.81 in NNW 1.0 mph 11.0 mph 16% 0.00 in 772.00 W/m2
14:17 98.5 °F 44.6 °F 29.81 in Calm   8.0 mph 16% 0.00 in 768.00 W/m2
14:19 98.5 °F 44.6 °F 29.81 in NW 2.0 mph 8.0 mph 16% 0.00 in 761.00 W/m2
14:24 98.6 °F 44.7 °F 29.81 in Calm   3.0 mph 16% 0.00 in 754.00 W/m2
14:29 98.7 °F 44.8 °F 29.80 in Calm   9.0 mph 16% 0.00 in 744.00 W/m2
14:34 98.5 °F 46.2 °F 29.80 in West 6.0 mph 11.0 mph 17% 0.00 in 731.00 W/m2
14:39 98.5 °F 46.2 °F 29.80 in Calm   9.0 mph 17% 0.00 in 726.00 W/m2
14:44 98.3 °F 46.0 °F 29.80 in NW 2.0 mph 13.0 mph 17% 0.00 in 707.00 W/m2
14:49 98.2 °F 46.0 °F 29.80 in Calm   3.0 mph 17% 0.00 in 703.00 W/m2
14:54 98.0 °F 45.8 °F 29.80 in Calm   14.0 mph 17% 0.00 in 693.00 W/m2
14:59 97.8 °F 45.7 °F 29.79 in Calm   8.0 mph 17% 0.00 in 698.00 W/m2
15:04 97.7 °F 45.6 °F 29.79 in Calm   9.0 mph 17% 0.00 in 682.00 W/m2
15:09 97.7 °F 45.6 °F 29.79 in West 7.0 mph 11.0 mph 17% 0.00 in 677.00 W/m2
15:14 97.7 °F 47.1 °F 29.79 in WNW 11.0 mph 11.0 mph 18% 0.00 in 668.00 W/m2
15:19 97.7 °F 47.1 °F 29.79 in WNW 8.0 mph 15.0 mph 18% 0.00 in 657.00 W/m2
15:24 97.7 °F 47.1 °F 29.79 in WSW 12.0 mph 13.0 mph 18% 0.00 in 647.00 W/m2
15:29 97.7 °F 45.6 °F 29.79 in Calm   14.0 mph 17% 0.00 in 631.00 W/m2
15:34 97.5 °F 45.4 °F 29.79 in Calm   7.0 mph 17% 0.00 in 626.00 W/m2
15:39 97.3 °F 45.2 °F 29.78 in Calm   11.0 mph 17% 0.00 in 606.00 W/m2
15:44 97.2 °F 45.2 °F 29.78 in Calm   10.0 mph 17% 0.00 in 596.00 W/m2
15:49 97.1 °F 46.6 °F 29.78 in Calm   6.0 mph 18% 0.00 in 585.00 W/m2
15:54 97.1 °F 45.1 °F 29.78 in NNW 1.0 mph 10.0 mph 17% 0.00 in 573.00 W/m2
15:59 97.1 °F 45.1 °F 29.78 in Calm   8.0 mph 17% 0.00 in 561.00 W/m2
16:02 97.1 °F 45.1 °F 29.78 in WNW 2.0 mph 5.0 mph 17% 0.00 in 550.00 W/m2
16:07 97.0 °F 45.0 °F 29.78 in Calm   12.0 mph 17% 0.00 in 541.00 W/m2
16:12 97.0 °F 46.5 °F 29.78 in Calm   11.0 mph 18% 0.00 in 527.00 W/m2
16:17 96.9 °F 46.4 °F 29.78 in Calm   8.0 mph 18% 0.00 in 513.00 W/m2
16:22 96.9 °F 44.9 °F 29.78 in Calm   8.0 mph 17% 0.00 in 503.00 W/m2
16:27 96.9 °F 43.3 °F 29.78 in West 1.0 mph 5.0 mph 16% 0.00 in 489.00 W/m2
16:32 96.9 °F 44.9 °F 29.78 in WNW 1.0 mph 7.0 mph 17% 0.00 in 473.00 W/m2
16:37 96.9 °F 44.9 °F 29.78 in NNW 4.0 mph 10.0 mph 17% 0.00 in 450.00 W/m2
16:42 96.9 °F 44.9 °F 29.78 in NW 2.0 mph 7.0 mph 17% 0.00 in 438.00 W/m2
16:47 96.9 °F 44.9 °F 29.78 in Calm   7.0 mph 17% 0.00 in 424.00 W/m2
16:52 96.7 °F 44.8 °F 29.78 in NW 2.0 mph 3.0 mph 17% 0.00 in 403.00 W/m2
16:57 96.6 °F 44.7 °F 29.78 in Calm   2.0 mph 17% 0.00 in 387.00 W/m2
17:03 96.6 °F 46.2 °F 29.78 in NNW 4.0 mph 10.0 mph 18% 0.00 in 371.00 W/m2
17:08 96.4 °F 44.5 °F 29.78 in Calm   9.0 mph 17% 0.00 in 357.00 W/m2
17:13 96.2 °F 44.4 °F 29.78 in North 7.0 mph 13.0 mph 17% 0.00 in 350.00 W/m2
17:18 96.0 °F 44.2 °F 29.78 in Calm   7.0 mph 17% 0.00 in 334.00 W/m2
17:23 95.8 °F 44.0 °F 29.78 in Calm   10.0 mph 17% 0.00 in 315.00 W/m2
17:28 95.7 °F 45.5 °F 29.78 in Calm   7.0 mph 18% 0.00 in 306.00 W/m2
17:33 95.5 °F 46.7 °F 29.78 in NW 7.0 mph 10.0 mph 19% 0.00 in 288.00 W/m2
17:38 95.4 °F 45.2 °F 29.78 in NW 2.0 mph 5.0 mph 18% 0.00 in 271.00 W/m2
17:43 95.3 °F 46.6 °F 29.78 in NW 1.0 mph 4.0 mph 19% 0.00 in 251.00 W/m2
17:48 95.1 °F 46.4 °F 29.78 in Calm   9.0 mph 19% 0.00 in 234.00 W/m2
17:53 94.9 °F 46.2 °F 29.78 in NNW 7.0 mph 9.0 mph 19% 0.00 in 218.00 W/m2
17:58 94.7 °F 46.1 °F 29.78 in North 1.0 mph 10.0 mph 19% 0.00 in 200.00 W/m2
18:03 94.5 °F 45.9 °F 29.78 in NW 3.0 mph 6.0 mph 19% 0.00 in 188.00 W/m2
18:08 94.3 °F 47.1 °F 29.78 in NW 3.0 mph 6.0 mph 20% 0.00 in 176.00 W/m2
18:13 94.1 °F 48.2 °F 29.78 in NW 2.0 mph 4.0 mph 21% 0.00 in 160.00 W/m2
18:18 93.7 °F 47.9 °F 29.78 in NW 5.0 mph 5.0 mph 21% 0.00 in 144.00 W/m2
18:23 93.4 °F 48.9 °F 29.78 in Calm   4.0 mph 22% 0.00 in 128.00 W/m2
18:28 93.0 °F 48.6 °F 29.78 in Calm   7.0 mph 22% 0.00 in 113.00 W/m2
18:33 92.7 °F 48.3 °F 29.78 in Calm   5.0 mph 22% 0.00 in 100.00 W/m2
18:38 92.4 °F 48.1 °F 29.78 in NW 1.0 mph 5.0 mph 22% 0.00 in 84.00 W/m2
18:43 92.0 °F 48.9 °F 29.78 in NW 7.0 mph 7.0 mph 23% 0.00 in 70.00 W/m2
18:48 91.5 °F 48.5 °F 29.78 in NW 1.0 mph 8.0 mph 23% 0.00 in 62.00 W/m2
18:49 91.4 °F 48.4 °F 29.78 in NW 1.0 mph 8.0 mph 23% 0.00 in 60.00 W/m2
18:54 91.0 °F 48.1 °F 29.79 in NW 4.0 mph 6.0 mph 23% 0.00 in 49.00 W/m2
18:59 90.6 °F 46.6 °F 29.79 in NNW 3.0 mph 6.0 mph 22% 0.00 in 40.00 W/m2
19:04 90.3 °F 47.5 °F 29.79 in NNW 1.0 mph 5.0 mph 23% 0.00 in 33.00 W/m2
19:09 90.0 °F 49.5 °F 29.79 in NNW 5.0 mph 5.0 mph 25% 0.00 in 26.00 W/m2
19:14 89.4 °F 49.0 °F 29.79 in NNW 1.0 mph 5.0 mph 25% 0.00 in 21.00 W/m2
19:19 89.0 °F 47.6 °F 29.79 in NNW 4.0 mph 6.0 mph 24% 0.00 in 16.00 W/m2
19:24 88.7 °F 47.3 °F 29.79 in NNW 2.0 mph 5.0 mph 24% 0.00 in 12.00 W/m2
19:29 88.4 °F 48.1 °F 29.79 in NNW 2.0 mph 6.0 mph 25% 0.00 in 9.00 W/m2
19:34 88.0 °F 48.8 °F 29.79 in Calm   3.0 mph 26% 0.00 in 5.00 W/m2
19:39 87.5 °F 48.4 °F 29.79 in Calm     26% 0.00 in 0.00 W/m2
19:44 87.0 °F 49.0 °F 29.79 in Calm   2.0 mph 27% 0.00 in 0.00 W/m2
19:49 86.5 °F 48.6 °F 29.80 in Calm     27% 0.00 in 0.00 W/m2
19:54 86.1 °F 48.2 °F 29.80 in Calm     27% 0.00 in 0.00 W/m2
19:59 85.7 °F 48.9 °F 29.80 in Calm     28% 0.00 in 0.00 W/m2
20:04 85.2 °F 48.5 °F 29.80 in Calm     28% 0.00 in 0.00 W/m2
20:09 84.5 °F 47.8 °F 29.79 in Calm     28% 0.00 in 0.00 W/m2
20:16 83.9 °F 48.3 °F 29.80 in NNW 2.0 mph 3.0 mph 29% 0.00 in 0.00 W/m2
20:21 83.7 °F 48.1 °F 29.80 in Calm   3.0 mph 29% 0.00 in 0.00 W/m2
20:23 83.6 °F 48.0 °F 29.80 in Calm   3.0 mph 29% 0.00 in 0.00 W/m2
20:24 83.6 °F 48.0 °F 29.80 in Calm   3.0 mph 29% 0.00 in 0.00 W/m2
20:26 83.6 °F 48.0 °F 29.80 in Calm     29% 0.00 in 0.00 W/m2
20:31 83.5 °F 47.9 °F 29.80 in Calm   1.0 mph 29% 0.00 in 0.00 W/m2
20:34 83.4 °F 48.8 °F 29.81 in Calm     30% 0.00 in 0.00 W/m2
20:36 83.3 °F 48.7 °F 29.81 in Calm     30% 0.00 in 0.00 W/m2
20:38 83.2 °F 48.6 °F 29.81 in Calm     30% 0.00 in 0.00 W/m2
20:43 83.0 °F 48.4 °F 29.81 in Calm     30% 0.00 in 0.00 W/m2
20:48 82.7 °F 48.1 °F 29.81 in Calm     30% 0.00 in 0.00 W/m2
20:53 82.5 °F 48.0 °F 29.81 in NNW 1.0 mph 2.0 mph 30% 0.00 in 0.00 W/m2
21:03 82.4 °F 47.9 °F 29.81 in Calm     30% 0.00 in 0.00 W/m2
21:08 82.4 °F 47.9 °F 29.82 in Calm     30% 0.00 in 0.00 W/m2
21:13 82.4 °F 47.9 °F 29.82 in Calm     30% 0.00 in 0.00 W/m2
21:18 82.4 °F 47.9 °F 29.82 in Calm     30% 0.00 in 0.00 W/m2
21:23 82.3 °F 47.8 °F 29.82 in Calm   1.0 mph 30% 0.00 in 0.00 W/m2
21:28 82.3 °F 47.8 °F 29.82 in Calm   2.0 mph 30% 0.00 in 0.00 W/m2
21:33 82.3 °F 47.8 °F 29.82 in NNE 2.0 mph 3.0 mph 30% 0.00 in 0.00 W/m2
21:38 82.2 °F 47.7 °F 29.82 in ENE 1.0 mph 4.0 mph 30% 0.00 in 0.00 W/m2
21:43 82.1 °F 47.6 °F 29.82 in ENE 1.0 mph 3.0 mph 30% 0.00 in 0.00 W/m2
21:48 82.1 °F 47.6 °F 29.82 in East 1.0 mph 5.0 mph 30% 0.00 in 0.00 W/m2
21:53 82.0 °F 48.4 °F 29.82 in Calm   4.0 mph 31% 0.00 in 0.00 W/m2
21:58 82.0 °F 48.4 °F 29.82 in East 1.0 mph 6.0 mph 31% 0.00 in 0.00 W/m2
22:03 81.9 °F 48.3 °F 29.82 in ESE 2.0 mph 8.0 mph 31% 0.00 in 0.00 W/m2
22:08 81.9 °F 48.3 °F 29.82 in ESE 1.0 mph 7.0 mph 31% 0.00 in 0.00 W/m2
22:13 81.9 °F 48.3 °F 29.82 in Calm   7.0 mph 31% 0.00 in 0.00 W/m2
22:18 81.8 °F 48.2 °F 29.83 in ESE 2.0 mph 7.0 mph 31% 0.00 in 0.00 W/m2
22:24 81.8 °F 48.2 °F 29.83 in Calm   6.0 mph 31% 0.00 in 0.00 W/m2
22:29 81.9 °F 48.3 °F 29.83 in ESE 2.0 mph 6.0 mph 31% 0.00 in 0.00 W/m2
22:34 81.9 °F 48.3 °F 29.83 in ESE 1.0 mph 7.0 mph 31% 0.00 in 0.00 W/m2
22:39 81.9 °F 47.5 °F 29.83 in ESE 7.0 mph 8.0 mph 30% 0.00 in 0.00 W/m2
22:44 81.9 °F 48.3 °F 29.83 in ESE 1.0 mph 6.0 mph 31% 0.00 in 0.00 W/m2
22:49 81.8 °F 48.2 °F 29.83 in ESE 2.0 mph 6.0 mph 31% 0.00 in 0.00 W/m2
22:54 81.7 °F 48.2 °F 29.83 in Calm   8.0 mph 31% 0.00 in 0.00 W/m2
22:59 81.6 °F 48.1 °F 29.83 in Calm   5.0 mph 31% 0.00 in 0.00 W/m2
23:04 81.5 °F 48.0 °F 29.83 in East 1.0 mph 8.0 mph 31% 0.00 in 0.00 W/m2
23:09 81.4 °F 47.0 °F 29.83 in ESE 4.0 mph 9.0 mph 30% 0.00 in 0.00 W/m2
23:14 81.3 °F 47.8 °F 29.83 in ESE 1.0 mph 7.0 mph 31% 0.00 in 0.00 W/m2
23:19 81.2 °F 47.7 °F 29.83 in Calm   6.0 mph 31% 0.00 in 0.00 W/m2
23:24 81.1 °F 47.6 °F 29.83 in ESE 1.0 mph 7.0 mph 31% 0.00 in 0.00 W/m2
23:29 80.9 °F 47.5 °F 29.83 in Calm   5.0 mph 31% 0.00 in 0.00 W/m2
23:34 80.9 °F 47.5 °F 29.83 in ESE 2.0 mph 7.0 mph 31% 0.00 in 0.00 W/m2
23:39 80.8 °F 47.4 °F 29.83 in ESE 1.0 mph 8.0 mph 31% 0.00 in 0.00 W/m2
23:44 80.6 °F 47.2 °F 29.83 in ESE 1.0 mph 8.0 mph 31% 0.00 in 0.00 W/m2
23:49 80.5 °F 47.1 °F 29.83 in ESE 1.0 mph 12.0 mph 31% 0.00 in 0.00 W/m2
23:54 80.4 °F 47.0 °F 29.83 in East 5.0 mph 9.0 mph 31% 0.00 in 0.00 W/m2
23:59 80.3 °F 46.9 °F 29.83 in ESE 4.0 mph 11.0 mph 31% 0.00 in 0.00 W/m2
Foresthill Weather
 WU-history PHP script courtesy of   Juneau County Weather.
powered by Cumulus v1.9.3 (1059)
Ambient Weather VWS v14.00
Top Contact Website Map Copyright © 2007 - 2018 Foresthillweather.com Never base important decisions on this or any weather information obtained from the Internet